When you browse on this site, cookies collect data to enhance your experience and personalize the content and advertising you see.
Visit our Privacy Policy to learn more. By continuing to use the site, you agree to this use of cookies and data.
  • In Romania
  • List of Countries
  • For 7 days
  • Water Temperature
  • Weather Map
  • Weather Widgets
  • user-avatar
    Login

    Hourly Weather Santiago del Estero

    Today, 21 November, Thursday

    Time Temperature Precipitation Wind Pressure Humidity
    00:00 +29°C° 0 mm 3 mps 739 mmHg 59%
    01:00 +29°C° 0 mm 2 mps 739 mmHg 59%
    02:00 +29°C° 0 mm 2 mps 739 mmHg 59%
    03:00 +29°C° 0 mm 2 mps 739 mmHg 60%
    04:00 +28°C° 0 mm 2 mps 738 mmHg 62%
    05:00 +28°C° 0 mm 2 mps 738 mmHg 63%
    06:00 +29°C° 0 mm 2 mps 739 mmHg 60%
    07:00 +30°C° 0 mm 3 mps 739 mmHg 56%
    08:00 +31°C° 0 mm 3 mps 739 mmHg 52%
    09:00 +34°C° 0 mm 3 mps 739 mmHg 46%
    10:00 +36°C° 0 mm 3 mps 739 mmHg 39%
    11:00 +39°C° 0 mm 3 mps 739 mmHg 32%
    12:00 +40°C° 0 mm 3 mps 738 mmHg 29%
    13:00 +42°C° 0 mm 3 mps 737 mmHg 26%
    14:00 +44°C° 0 mm 4 mps 737 mmHg 23%
    15:00 +44°C° 0 mm 3 mps 736 mmHg 22%
    16:00 +44°C° 0 mm 3 mps 736 mmHg 21%
    17:00 +45°C° 0 mm 3 mps 735 mmHg 20%
    18:00 +42°C° 0 mm 3 mps 735 mmHg 24%
    19:00 +39°C° 0 mm 3 mps 735 mmHg 27%
    20:00 +36°C° 0 mm 3 mps 735 mmHg 31%
    21:00 +35°C° 0 mm 3 mps 736 mmHg 32%
    22:00 +34°C° 0 mm 3 mps 736 mmHg 33%
    23:00 +33°C° 0 mm 3 mps 736 mmHg 35%

    Tomorrow, 22 November, Friday

    Time Temperature Precipitation Wind Pressure Humidity
    00:00 +31°C° 0 mm 2 mps 735 mmHg 36%
    01:00 +31°C° 0 mm 2 mps 735 mmHg 37%
    02:00 +30°C° 0 mm 2 mps 735 mmHg 38%
    03:00 +30°C° 0 mm 2 mps 735 mmHg 39%
    04:00 +29°C° 0 mm 2 mps 735 mmHg 40%
    05:00 +28°C° 0 mm 2 mps 735 mmHg 41%
    06:00 +30°C° 0 mm 4 mps 737 mmHg 43%
    07:00 +32°C° 0 mm 5 mps 738 mmHg 44%
    08:00 +33°C° 0 mm 7 mps 739 mmHg 46%
    09:00 +34°C° 0 mm 8 mps 739 mmHg 47%
    10:00 +34°C° 0 mm 8 mps 740 mmHg 48%
    11:00 +35°C° 0 mm 8 mps 740 mmHg 49%
    12:00 +37°C° 0 mm 8 mps 740 mmHg 47%
    13:00 +38°C° 0 mm 7 mps 740 mmHg 46%
    14:00 +38°C° 0 mm 7 mps 740 mmHg 44%
    15:00 +38°C° 0 mm 6 mps 740 mmHg 44%
    16:00 +36°C° 0 mm 6 mps 740 mmHg 45%
    17:00 +36°C° 0 mm 6 mps 739 mmHg 46%
    18:00 +34°C° 0 mm 6 mps 740 mmHg 46%
    19:00 +33°C° 0 mm 6 mps 740 mmHg 47%
    20:00 +32°C° 0 mm 6 mps 741 mmHg 48%
    21:00 +30°C° 0.3 mm 5 mps 741 mmHg 53%
    22:00 +28°C° 0.3 mm 4 mps 742 mmHg 59%
    23:00 +27°C° 0.3 mm 3 mps 742 mmHg 64%

    Day after tomorrow, 23 November, Saturday

    Time Temperature Precipitation Wind Pressure Humidity
    00:00 +27°C° 0.2 mm 2 mps 742 mmHg 67%
    01:00 +26°C° 0.2 mm 2 mps 742 mmHg 70%
    02:00 +26°C° 0.2 mm 1 mps 741 mmHg 73%
    03:00 +25°C° 0.7 mm 1 mps 741 mmHg 75%
    04:00 +25°C° 0.7 mm 1 mps 741 mmHg 77%
    05:00 +25°C° 0.7 mm 1 mps 741 mmHg 80%
    06:00 +26°C° 0 mm 1 mps 742 mmHg 73%
    07:00 +27°C° 0 mm 2 mps 742 mmHg 67%
    08:00 +28°C° 0 mm 3 mps 742 mmHg 61%
    09:00 +30°C° 0 mm 3 mps 742 mmHg 55%
    10:00 +33°C° 0 mm 3 mps 742 mmHg 50%
    11:00 +34°C° 0 mm 4 mps 741 mmHg 44%
    12:00 +36°C° 0 mm 4 mps 740 mmHg 41%
    13:00 +37°C° 0 mm 4 mps 740 mmHg 38%
    14:00 +38°C° 0 mm 4 mps 739 mmHg 36%
    15:00 +38°C° 0 mm 4 mps 738 mmHg 35%
    16:00 +38°C° 0 mm 4 mps 737 mmHg 35%
    17:00 +38°C° 0 mm 4 mps 737 mmHg 34%
    18:00 +37°C° 0 mm 3 mps 737 mmHg 38%
    19:00 +35°C° 0 mm 2 mps 737 mmHg 42%
    20:00 +33°C° 0 mm 1 mps 737 mmHg 46%
    21:00 +34°C° 0 mm 2 mps 737 mmHg 45%
    22:00 +34°C° 0 mm 2 mps 737 mmHg 43%
    23:00 +34°C° 0 mm 3 mps 737 mmHg 42%

    24 November, Sunday

    Time Temperature Precipitation Wind Pressure Humidity
    00:00 +33°C° 0 mm 3 mps 737 mmHg 44%
    01:00 +32°C° 0 mm 4 mps 736 mmHg 46%
    02:00 +30°C° 0 mm 4 mps 736 mmHg 47%
    03:00 +30°C° 0 mm 4 mps 736 mmHg 50%
    04:00 +29°C° 0 mm 4 mps 736 mmHg 53%
    05:00 +28°C° 0 mm 5 mps 736 mmHg 56%
    06:00 +29°C° 0 mm 6 mps 736 mmHg 53%
    07:00 +30°C° 0 mm 7 mps 736 mmHg 51%
    08:00 +33°C° 0 mm 8 mps 736 mmHg 48%
    09:00 +35°C° 0 mm 8 mps 735 mmHg 43%
    10:00 +38°C° 0 mm 8 mps 735 mmHg 38%
    11:00 +40°C° 0 mm 8 mps 734 mmHg 33%
    12:00 +43°C° 0 mm 8 mps 733 mmHg 30%
    13:00 +44°C° 0 mm 8 mps 732 mmHg 27%
    14:00 +45°C° 0 mm 8 mps 731 mmHg 24%
    15:00 +46°C° 0 mm 8 mps 730 mmHg 24%
    16:00 +46°C° 0 mm 7 mps 729 mmHg 23%
    17:00 +46°C° 0 mm 7 mps 729 mmHg 23%
    18:00 +44°C° 0 mm 6 mps 729 mmHg 25%
    19:00 +41°C° 0 mm 5 mps 729 mmHg 28%
    20:00 +40°C° 0 mm 4 mps 730 mmHg 30%
    21:00 +37°C° 0.1 mm 4 mps 729 mmHg 32%
    22:00 +36°C° 0.1 mm 4 mps 729 mmHg 35%
    23:00 +35°C° 0.1 mm 4 mps 729 mmHg 37%

    25 November, Monday

    Time Temperature Precipitation Wind Pressure Humidity
    00:00 +35°C° 0.1 mm 4 mps 729 mmHg 38%
    01:00 +34°C° 0.1 mm 4 mps 728 mmHg 39%
    02:00 +34°C° 0.1 mm 4 mps 728 mmHg 40%
    03:00 +32°C° 0.5 mm 6 mps 729 mmHg 52%
    04:00 +29°C° 0.5 mm 8 mps 730 mmHg 64%
    05:00 +27°C° 0.5 mm 10 mps 731 mmHg 76%
    06:00 +26°C° 1.1 mm 10 mps 732 mmHg 76%
    07:00 +26°C° 1.1 mm 9 mps 734 mmHg 77%
    08:00 +24°C° 1.1 mm 9 mps 735 mmHg 78%
    09:00 +24°C° 0.2 mm 8 mps 736 mmHg 76%
    10:00 +26°C° 0.2 mm 7 mps 737 mmHg 75%
    11:00 +26°C° 0.2 mm 7 mps 737 mmHg 74%
    12:00 +27°C° 0 mm 6 mps 737 mmHg 66%
    13:00 +28°C° 0 mm 6 mps 737 mmHg 59%
    14:00 +30°C° 0 mm 6 mps 737 mmHg 51%
    15:00 +30°C° 0 mm 6 mps 736 mmHg 48%
    16:00 +32°C° 0 mm 6 mps 736 mmHg 45%
    17:00 +32°C° 0 mm 6 mps 736 mmHg 42%
    18:00 +30°C° 0 mm 6 mps 736 mmHg 47%
    19:00 +28°C° 0 mm 5 mps 737 mmHg 52%
    20:00 +27°C° 0 mm 5 mps 738 mmHg 58%
    21:00 +26°C° 0.1 mm 5 mps 738 mmHg 60%
    22:00 +25°C° 0.1 mm 5 mps 739 mmHg 63%
    23:00 +25°C° 0.1 mm 5 mps 739 mmHg 65%

    26 November, Tuesday

    Time Temperature Precipitation Wind Pressure Humidity
    00:00 +23°C° 0 mm 5 mps 739 mmHg 65%
    01:00 +23°C° 0 mm 5 mps 739 mmHg 64%
    02:00 +23°C° 0 mm 5 mps 739 mmHg 64%
    03:00 +22°C° 0 mm 6 mps 740 mmHg 63%
    04:00 +21°C° 0 mm 6 mps 740 mmHg 62%
    05:00 +21°C° 0 mm 7 mps 741 mmHg 61%
    06:00 +20°C° 0.1 mm 7 mps 741 mmHg 60%
    07:00 +20°C° 0.1 mm 7 mps 742 mmHg 58%
    08:00 +18°C° 0.1 mm 8 mps 743 mmHg 57%
    09:00 +18°C° 0 mm 8 mps 743 mmHg 53%
    10:00 +20°C° 0 mm 7 mps 743 mmHg 49%
    11:00 +20°C° 0 mm 7 mps 744 mmHg 45%
    12:00 +18°C° 0 mm 7 mps 743 mmHg 49%
    13:00 +19°C° 0 mm 6 mps 743 mmHg 52%
    14:00 +17°C° 0 mm 6 mps 743 mmHg 55%
    15:00 +17°C° 0 mm 5 mps 742 mmHg 56%
    16:00 +17°C° 0 mm 5 mps 742 mmHg 56%
    17:00 +18°C° 0 mm 4 mps 742 mmHg 57%
    18:00 +18°C° 0 mm 4 mps 742 mmHg 56%
    19:00 +18°C° 0 mm 3 mps 742 mmHg 55%
    20:00 +19°C° 0 mm 3 mps 743 mmHg 54%
    21:00 +18°C° 0 mm 2 mps 743 mmHg 57%
    22:00 +17°C° 0 mm 2 mps 743 mmHg 60%
    23:00 +18°C° 0 mm 1 mps 743 mmHg 63%
    Show more